{"data":{"norad_id":54192,"epoch":"2026-05-25T00:15:32.574816Z","epoch_age_seconds":71161,"freshness":"FRESH","line1":"1 54192U 22141AM  26145.01079369  .00000671  00000+0  60232-4 0  9994","line2":"2 54192  53.2146  11.2255 0001467  85.2300 274.8860 15.08841847197521","mean_motion":15.08841847,"eccentricity":0.0001467,"inclination_deg":53.2146,"raan_deg":11.2255,"arg_perigee_deg":85.23,"mean_anomaly_deg":274.886,"bstar":6.0232e-5,"rev_number":19752,"period_min":95.437437850966,"perigee_km":538.7228912049,"apogee_km":540.75259565463,"semimajor_km":6917.8747434298,"source":"CELESTRAK","updated_at":"2026-05-25T13:38:17.683627Z"}}